Regional Weather Roundup
Issued by NWS

Home | Current Version | Previous Version | Graphics & Text | Print | Product List | Glossary On
Versions: 1 2 3 4 5 6 7 8 9 10 11 12 13 14 15 16 17 18 19 20 21 22 23 24 25 26 27 28 29 30 31 32 33 34 35 36 37 38 39 40 41 42 43 44 45 46 47 48 49 50
000
ASUS44 KMEG 201500
RWRTN
TENNESSEE HOURLY STATE WEATHER ROUNDUP
NATIONAL WEATHER SERVICE MEMPHIS TN
1000 AM CDT WED AUG 20 2014

TNZ002-004-019-021-049-052-054-088>092-201600-
WEST TENNESSEE

CITY           SKY/WX    TMP DP  RH WIND       PRES   REMARKS
MEMPHIS INTL   MOSUNNY   86  74  67 SW7       30.03R HX  94
NWS MEMPHIS      N/A     86 N/A N/A MISG        N/A
JACKSON        SUNNY     86  75  69 W12       30.01R HX  95
DYERSBURG      SUNNY     84  70  61 SW12      30.01R
PARIS          SUNNY     82  75  78 SW9       30.00R
SAVANNAH       SUNNY     84  79  84 W8        30.03S HX  96
$$

TNZ008-025-027-028-033-062-065-066-201600-
NORTH MIDDLE TENNESSEE

CITY           SKY/WX    TMP DP  RH WIND       PRES   REMARKS
NASHVILLE      MOSUNNY   88  76  67 VRB5      30.00R HX  99
CLARKSVILLE    SUNNY     85  76  74 W9        29.97R HX  94
COOKEVILLE     CLOUDY    81  75  83 SW6       30.03R
CROSSVILLE     CLOUDY    79  72  79 SW7       30.09R
$$

TNZ061-075-076-078-094-096-097-201600-
SOUTH MIDDLE TENNESSEE

CITY           SKY/WX    TMP DP  RH WIND       PRES   REMARKS
SHELBYVILLE    MOSUNNY   88  79  74 W7        30.04R HX 102
$$

TNZ017-018-042-046-047-201600-
NORTHEAST TENNESSEE

CITY           SKY/WX    TMP DP  RH WIND       PRES   REMARKS
TRI CITIES     TSTM      67  63  87 SE6       30.06F FOG
ELIZABETHTON   PTSUNNY   70  64  83 SW6       30.09R
$$

TNZ012-013-036-069-073-074-201600-
CENTRAL EAST TENNESSEE

CITY           SKY/WX    TMP DP  RH WIND       PRES   REMARKS
KNOXVILLE      PTSUNNY   81  73  76 W7        30.03R
OAK RIDGE      MOSUNNY   81  73  76 VRB3      30.04S
GATLINBURG     MOSUNNY   86  72  62 VRB7      30.02S HX  92
$$

TNZ083-085-099-201600-
SOUTHEAST TENNESSEE

CITY           SKY/WX    TMP DP  RH WIND       PRES   REMARKS
CHATTANOOGA    MOSUNNY   85  73  67 CALM      30.04R HX  91
$$

SKY/WX REPORTED AS FAIR MEANS FEW OR NO CLOUDS BELOW
12 THOUSAND FEET.



USA.gov is the U.S. government's official web portal to all federal, state and local government web resources and services.